AAL1698 KLIT-KDFW

Flight info

Callsign AAL1698
Flight time 0h 54m
Altitude 28000
Route LIT MEEOW FEWWW SEEVR4
Aircraft A320/M-SDE3FGHIRWY/LB1

Departure

Time 2026-05-08 04:32
Airport Bill & Hillary Clinton National Airport/Adams Field (KLIT)

Arrival

Time 2026-05-08 05:27
Airport Dallas Fort Worth International Airport (KDFW)
Time Latitude Longitude Altitude Speed Heading
2026-05-08 03:37 34.73116 -92.21956 271 ft 0 kts 191°
2026-05-08 04:14 34.73129 -92.21953 270 ft 4 kts 191°
2026-05-08 04:14 34.73151 -92.21948 270 ft 2 kts 191°
2026-05-08 04:14 34.73177 -92.21942 271 ft 4 kts 191°
2026-05-08 04:14 34.73188 -92.21939 271 ft 0 kts 191°
2026-05-08 04:23 34.73181 -92.21943 271 ft 6 kts 206°
2026-05-08 04:23 34.73198 -92.21987 271 ft 6 kts 313°
2026-05-08 04:23 34.73228 -92.22029 271 ft 9 kts 302°
2026-05-08 04:24 34.73261 -92.22130 270 ft 17 kts 293°
2026-05-08 04:24 34.73272 -92.22160 270 ft 0 kts 293°
2026-05-08 04:24 34.73272 -92.22161 270 ft 1 kts 293°
2026-05-08 04:24 34.73299 -92.22211 271 ft 12 kts 320°
2026-05-08 04:25 34.73370 -92.22182 271 ft 14 kts 45°
2026-05-08 04:25 34.73430 -92.22097 270 ft 13 kts 42°
2026-05-08 04:25 34.73504 -92.22011 268 ft 16 kts 46°
2026-05-08 04:25 34.73578 -92.21917 269 ft 14 kts 47°
2026-05-08 04:26 34.73638 -92.21840 269 ft 11 kts 45°
2026-05-08 04:26 34.73690 -92.21775 269 ft 10 kts 46°
2026-05-08 04:26 34.73735 -92.21747 269 ft 0 kts 348°
2026-05-08 04:31 34.73737 -92.21747 269 ft 2 kts 348°
2026-05-08 04:31 34.73796 -92.21804 267 ft 14 kts 307°
2026-05-08 04:31 34.73748 -92.21898 266 ft 17 kts 227°
2026-05-08 04:32 34.73522 -92.22184 267 ft 83 kts 227°
2026-05-08 04:32 34.72974 -92.22877 261 ft 141 kts 226°
2026-05-08 04:32 34.72257 -92.23825 732 ft 145 kts 229°
2026-05-08 04:32 34.71592 -92.24785 1328 ft 151 kts 230°
2026-05-08 04:33 34.70901 -92.25759 1886 ft 152 kts 228°
2026-05-08 04:33 34.70194 -92.26786 2341 ft 161 kts 230°
2026-05-08 04:33 34.69464 -92.27849 2814 ft 169 kts 230°
2026-05-08 04:33 34.68683 -92.28965 3301 ft 178 kts 230°
2026-05-08 04:34 34.67830 -92.30163 3620 ft 200 kts 230°
2026-05-08 04:34 34.66866 -92.31502 4082 ft 221 kts 230°
2026-05-08 04:34 34.65898 -92.33062 4562 ft 242 kts 242°
2026-05-08 04:34 34.65120 -92.34968 5031 ft 261 kts 250°
2026-05-08 04:35 34.64468 -92.37063 5468 ft 266 kts 251°
2026-05-08 04:35 34.63831 -92.39162 5936 ft 264 kts 252°
2026-05-08 04:35 34.63190 -92.41250 6397 ft 262 kts 252°
2026-05-08 04:35 34.62551 -92.43315 6824 ft 260 kts 251°
2026-05-08 04:36 34.61915 -92.45374 7256 ft 261 kts 251°
2026-05-08 04:36 34.61305 -92.47444 7686 ft 260 kts 257°
2026-05-08 04:36 34.61201 -92.49619 8132 ft 259 kts 271°
2026-05-08 04:36 34.61069 -92.51797 8582 ft 259 kts 262°
2026-05-08 04:37 34.60775 -92.53956 9243 ft 260 kts 261°
2026-05-08 04:37 34.60463 -92.56190 9704 ft 280 kts 261°
2026-05-08 04:37 34.60132 -92.58612 10085 ft 298 kts 261°
2026-05-08 04:37 34.59795 -92.61123 10771 ft 304 kts 261°
2026-05-08 04:38 34.59447 -92.63660 11533 ft 306 kts 259°
2026-05-08 04:38 34.59051 -92.66170 12322 ft 308 kts 258°
2026-05-08 04:38 34.58551 -92.68705 13105 ft 311 kts 255°
2026-05-08 04:38 34.57976 -92.71292 13543 ft 323 kts 255°
2026-05-08 04:39 34.57382 -92.73955 14154 ft 328 kts 255°
2026-05-08 04:39 34.56787 -92.76642 14801 ft 331 kts 255°
2026-05-08 04:39 34.56193 -92.79342 15492 ft 332 kts 255°
2026-05-08 04:39 34.55600 -92.82053 16198 ft 333 kts 255°
2026-05-08 04:40 34.55007 -92.84775 16897 ft 334 kts 255°
2026-05-08 04:40 34.54585 -92.86573 17353 ft 335 kts 253°
2026-05-08 04:40 34.53890 -92.89280 18025 ft 337 kts 250°
2026-05-08 04:40 34.53035 -92.91936 18663 ft 339 kts 249°
2026-05-08 04:41 34.52130 -92.94580 19269 ft 340 kts 248°
2026-05-08 04:41 34.51196 -92.97227 19869 ft 342 kts 248°
2026-05-08 04:41 34.50252 -92.99889 20184 ft 343 kts 248°
2026-05-08 04:41 34.49318 -93.02532 20533 ft 340 kts 248°
2026-05-08 04:42 34.48389 -93.05178 21076 ft 343 kts 248°
2026-05-08 04:42 34.47455 -93.07843 21621 ft 344 kts 248°
2026-05-08 04:42 34.46518 -93.10521 22176 ft 346 kts 249°
2026-05-08 04:42 34.45579 -93.13203 22749 ft 347 kts 249°
2026-05-08 04:43 34.44637 -93.15899 23334 ft 347 kts 249°
2026-05-08 04:43 34.43694 -93.18592 23876 ft 347 kts 249°
2026-05-08 04:43 34.42748 -93.21285 24365 ft 347 kts 249°
2026-05-08 04:43 34.41804 -93.23974 24867 ft 346 kts 249°
2026-05-08 04:44 34.40865 -93.26655 25370 ft 345 kts 249°
2026-05-08 04:44 34.39939 -93.29295 25876 ft 344 kts 249°
2026-05-08 04:44 34.39007 -93.31951 26408 ft 342 kts 249°
2026-05-08 04:44 34.38077 -93.34594 26940 ft 340 kts 249°
2026-05-08 04:45 34.37152 -93.37220 27487 ft 338 kts 249°
2026-05-08 04:45 34.36228 -93.39835 27953 ft 339 kts 249°
2026-05-08 04:45 34.34333 -93.45216 28067 ft 356 kts 249°
2026-05-08 04:46 34.32354 -93.50823 28059 ft 366 kts 248°
2026-05-08 04:46 34.30398 -93.56536 28061 ft 368 kts 250°
2026-05-08 04:47 34.28559 -93.62312 28059 ft 368 kts 250°
2026-05-08 04:47 34.26728 -93.68100 28056 ft 368 kts 250°
2026-05-08 04:48 34.24875 -93.73865 28055 ft 368 kts 250°
2026-05-08 04:48 34.23001 -93.79622 28054 ft 368 kts 250°
2026-05-08 04:49 34.21118 -93.85382 28055 ft 368 kts 250°
2026-05-08 04:49 34.19260 -93.91109 28058 ft 368 kts 250°
2026-05-08 04:50 34.17462 -93.96941 28053 ft 368 kts 251°
2026-05-08 04:50 34.15729 -94.02709 28053 ft 368 kts 251°
2026-05-08 04:51 34.13971 -94.08510 28052 ft 367 kts 250°
2026-05-08 04:51 34.12201 -94.14291 28055 ft 367 kts 250°
2026-05-08 04:52 34.10423 -94.20066 28055 ft 367 kts 250°
2026-05-08 04:52 34.08633 -94.25836 28056 ft 367 kts 250°
2026-05-08 04:53 34.06847 -94.31597 28055 ft 367 kts 250°
2026-05-08 04:53 34.05062 -94.37361 28055 ft 367 kts 250°
2026-05-08 04:54 34.03280 -94.43120 28054 ft 367 kts 250°
2026-05-08 04:54 34.01484 -94.48880 28059 ft 367 kts 250°
2026-05-08 04:55 33.99688 -94.54647 28057 ft 367 kts 250°
2026-05-08 04:55 33.97894 -94.60407 28054 ft 367 kts 250°
2026-05-08 04:56 33.96112 -94.66133 28052 ft 368 kts 250°
2026-05-08 04:56 33.94299 -94.71898 28054 ft 367 kts 250°
2026-05-08 04:57 33.92492 -94.77655 28049 ft 367 kts 250°
2026-05-08 04:57 33.90683 -94.83410 28051 ft 368 kts 250°
2026-05-08 04:58 33.88879 -94.89167 28053 ft 367 kts 249°
2026-05-08 04:58 33.87062 -94.94916 28057 ft 367 kts 249°
2026-05-08 04:59 33.85245 -95.00653 28053 ft 367 kts 249°
2026-05-08 04:59 33.83430 -95.06385 28054 ft 366 kts 249°
2026-05-08 05:00 33.81613 -95.12104 28058 ft 366 kts 249°
2026-05-08 05:00 33.79800 -95.17782 28069 ft 366 kts 249°
2026-05-08 05:01 33.78892 -95.20632 27874 ft 364 kts 249°
2026-05-08 05:01 33.77987 -95.23478 27618 ft 366 kts 249°
2026-05-08 05:01 33.77075 -95.26342 27318 ft 366 kts 249°
2026-05-08 05:01 33.76165 -95.29190 26308 ft 367 kts 249°
2026-05-08 05:02 33.75242 -95.32073 25921 ft 373 kts 249°
2026-05-08 05:02 33.74300 -95.35008 25557 ft 378 kts 249°
2026-05-08 05:02 33.73349 -95.37966 25163 ft 381 kts 249°
2026-05-08 05:02 33.72387 -95.40946 24773 ft 384 kts 249°
2026-05-08 05:03 33.71419 -95.43938 24384 ft 379 kts 250°
2026-05-08 05:03 33.70479 -95.46837 23991 ft 367 kts 250°
2026-05-08 05:03 33.69566 -95.49650 23618 ft 356 kts 250°
2026-05-08 05:03 33.68680 -95.52384 23164 ft 347 kts 250°
2026-05-08 05:04 33.67814 -95.55061 22719 ft 340 kts 250°
2026-05-08 05:04 33.66966 -95.57680 22275 ft 333 kts 250°
2026-05-08 05:04 33.66145 -95.60207 21837 ft 316 kts 250°
2026-05-08 05:04 33.65360 -95.62621 21409 ft 306 kts 250°
2026-05-08 05:05 33.64600 -95.64953 20993 ft 303 kts 250°
2026-05-08 05:05 33.63836 -95.67298 20577 ft 301 kts 250°
2026-05-08 05:05 33.63078 -95.69633 20165 ft 300 kts 250°
2026-05-08 05:05 33.62317 -95.71968 19760 ft 300 kts 250°
2026-05-08 05:06 33.61557 -95.74300 19364 ft 300 kts 250°
2026-05-08 05:06 33.60800 -95.76628 18971 ft 299 kts 250°
2026-05-08 05:06 33.60046 -95.78946 18579 ft 298 kts 250°
2026-05-08 05:06 33.59291 -95.81255 18170 ft 297 kts 250°
2026-05-08 05:07 33.58535 -95.83563 17726 ft 297 kts 250°
2026-05-08 05:07 33.57782 -95.85863 17283 ft 295 kts 250°
2026-05-08 05:07 33.57034 -95.88147 16847 ft 294 kts 250°
2026-05-08 05:07 33.56287 -95.90434 16421 ft 294 kts 250°
2026-05-08 05:08 33.55543 -95.92712 15999 ft 293 kts 250°
2026-05-08 05:08 33.54802 -95.94982 15580 ft 292 kts 250°
2026-05-08 05:08 33.54060 -95.97246 15174 ft 292 kts 250°
2026-05-08 05:08 33.53316 -95.99506 14768 ft 291 kts 249°
2026-05-08 05:09 33.52570 -96.01763 14372 ft 291 kts 249°
2026-05-08 05:09 33.51827 -96.04015 13976 ft 290 kts 249°
2026-05-08 05:09 33.51084 -96.06263 13550 ft 290 kts 249°
2026-05-08 05:09 33.50342 -96.08503 13120 ft 289 kts 249°
2026-05-08 05:10 33.49603 -96.10731 13003 ft 288 kts 249°
2026-05-08 05:10 33.48133 -96.15181 13016 ft 290 kts 249°
2026-05-08 05:10 33.47389 -96.17427 13017 ft 290 kts 249°
2026-05-08 05:11 33.46646 -96.19669 13016 ft 290 kts 249°
2026-05-08 05:11 33.45901 -96.21916 13017 ft 290 kts 249°
2026-05-08 05:11 33.45156 -96.24164 13016 ft 291 kts 249°
2026-05-08 05:11 33.44201 -96.26297 13016 ft 293 kts 237°
2026-05-08 05:12 33.42893 -96.28179 13017 ft 295 kts 232°
2026-05-08 05:12 33.41546 -96.30029 13016 ft 295 kts 232°
2026-05-08 05:12 33.40203 -96.31880 12890 ft 292 kts 232°
2026-05-08 05:12 33.38874 -96.33715 12449 ft 291 kts 232°
2026-05-08 05:13 33.37549 -96.35541 12027 ft 290 kts 232°
2026-05-08 05:13 33.36226 -96.37361 11601 ft 289 kts 232°
2026-05-08 05:13 33.34905 -96.39177 11185 ft 288 kts 232°
2026-05-08 05:13 33.33593 -96.40984 10722 ft 287 kts 233°
2026-05-08 05:14 33.32513 -96.42961 10181 ft 284 kts 247°
2026-05-08 05:14 33.31838 -96.45194 9611 ft 287 kts 252°
2026-05-08 05:14 33.31201 -96.47470 9019 ft 290 kts 252°
2026-05-08 05:14 33.30565 -96.49736 8448 ft 293 kts 252°
2026-05-08 05:15 33.29909 -96.52068 8083 ft 288 kts 252°
2026-05-08 05:15 33.29285 -96.54293 7948 ft 276 kts 253°
2026-05-08 05:15 33.28751 -96.56444 7823 ft 263 kts 261°
2026-05-08 05:15 33.28613 -96.58547 7701 ft 251 kts 268°
2026-05-08 05:16 33.28524 -96.60595 7508 ft 243 kts 268°
2026-05-08 05:16 33.28435 -96.62598 7170 ft 241 kts 268°
2026-05-08 05:16 33.28342 -96.64602 6793 ft 241 kts 268°
2026-05-08 05:16 33.28249 -96.66606 6400 ft 242 kts 268°
2026-05-08 05:17 33.28154 -96.68618 6062 ft 241 kts 268°
2026-05-08 05:17 33.28061 -96.70625 6023 ft 244 kts 268°
2026-05-08 05:17 33.27967 -96.72655 6022 ft 245 kts 268°
2026-05-08 05:17 33.27871 -96.74689 6023 ft 245 kts 268°
2026-05-08 05:18 33.27773 -96.76725 6023 ft 245 kts 268°
2026-05-08 05:18 33.27674 -96.78757 6021 ft 245 kts 268°
2026-05-08 05:18 33.27574 -96.80793 6018 ft 245 kts 268°
2026-05-08 05:18 33.27477 -96.82799 6018 ft 245 kts 268°
2026-05-08 05:19 33.27378 -96.84837 6011 ft 245 kts 266°
2026-05-08 05:19 33.26902 -96.86772 5702 ft 245 kts 239°
2026-05-08 05:19 33.25706 -96.88224 5283 ft 248 kts 217°
2026-05-08 05:19 33.24299 -96.89442 4862 ft 250 kts 217°
2026-05-08 05:20 33.22900 -96.90651 4630 ft 243 kts 217°
2026-05-08 05:20 33.21562 -96.91808 4465 ft 234 kts 216°
2026-05-08 05:20 33.20272 -96.92926 4173 ft 231 kts 216°
2026-05-08 05:20 33.18973 -96.94054 3847 ft 230 kts 216°
2026-05-08 05:21 33.17678 -96.95180 3522 ft 230 kts 216°
2026-05-08 05:21 33.16384 -96.96305 3184 ft 230 kts 215°
2026-05-08 05:21 33.15098 -96.97419 3012 ft 228 kts 215°
2026-05-08 05:21 33.13812 -96.98534 3030 ft 228 kts 215°
2026-05-08 05:22 33.12537 -96.99641 3020 ft 221 kts 215°
2026-05-08 05:22 33.11336 -97.00686 3008 ft 208 kts 214°
2026-05-08 05:22 33.10185 -97.01687 3022 ft 202 kts 215°
2026-05-08 05:22 33.08952 -97.02432 3011 ft 197 kts 187°
2026-05-08 05:23 33.07610 -97.02497 2993 ft 186 kts 178°
2026-05-08 05:23 33.06390 -97.02514 2994 ft 168 kts 177°
2026-05-08 05:23 33.05245 -97.02523 2996 ft 162 kts 177°
2026-05-08 05:23 33.04125 -97.02530 2930 ft 160 kts 177°
2026-05-08 05:24 33.03022 -97.02536 2790 ft 158 kts 177°
2026-05-08 05:24 33.01929 -97.02542 2602 ft 157 kts 177°
2026-05-08 05:24 33.00859 -97.02548 2398 ft 155 kts 176°
2026-05-08 05:24 32.99782 -97.02554 2192 ft 154 kts 176°
2026-05-08 05:25 32.98714 -97.02559 1986 ft 153 kts 177°
2026-05-08 05:25 32.97650 -97.02565 1780 ft 152 kts 178°
2026-05-08 05:25 32.96592 -97.02571 1569 ft 153 kts 177°
2026-05-08 05:25 32.95527 -97.02579 1413 ft 153 kts 179°
2026-05-08 05:26 32.94480 -97.02608 1265 ft 149 kts 179°
2026-05-08 05:26 32.93466 -97.02596 1090 ft 143 kts 180°
2026-05-08 05:26 32.92470 -97.02599 893 ft 143 kts 180°
2026-05-08 05:26 32.91508 -97.02599 664 ft 137 kts 179°
2026-05-08 05:27 32.90635 -97.02604 625 ft 92 kts 181°
2026-05-08 05:27 32.90249 -97.02607 622 ft 43 kts 180°
2026-05-08 05:27 32.89963 -97.02661 619 ft 40 kts 206°
2026-05-08 05:27 32.89804 -97.02766 624 ft 6 kts 212°
2026-05-08 05:28 32.89802 -97.02768 621 ft 0 kts 212°
2026-05-08 05:28 32.89799 -97.02770 622 ft 4 kts 212°
2026-05-08 05:28 32.89745 -97.02802 620 ft 9 kts 192°
2026-05-08 05:28 32.89686 -97.02804 619 ft 10 kts 180°
2026-05-08 05:29 32.89594 -97.02804 623 ft 14 kts 180°
2026-05-08 05:29 32.89500 -97.02805 627 ft 10 kts 180°
2026-05-08 05:29 32.89494 -97.02805 623 ft 0 kts 180°
2026-05-08 05:30 32.89461 -97.02805 619 ft 18 kts 180°
2026-05-08 05:30 32.89390 -97.02878 616 ft 15 kts 275°
2026-05-08 05:30 32.89393 -97.03002 616 ft 15 kts 271°
2026-05-08 05:30 32.89396 -97.03147 616 ft 20 kts 282°
2026-05-08 05:31 32.89522 -97.03197 616 ft 23 kts
2026-05-08 05:31 32.89756 -97.03194 620 ft 27 kts
2026-05-08 05:31 32.89883 -97.03192 620 ft 27 kts
2026-05-08 05:31 32.90076 -97.03192 624 ft 23 kts
2026-05-08 05:32 32.90212 -97.03190 621 ft 20 kts
2026-05-08 05:32 32.90325 -97.03221 620 ft 15 kts 303°
2026-05-08 05:32 32.90331 -97.03349 615 ft 16 kts 270°
2026-05-08 05:32 32.90318 -97.03452 625 ft 8 kts 222°
2026-05-08 05:33 32.90312 -97.03461 623 ft 5 kts 233°
2026-05-08 05:33 32.90331 -97.03530 625 ft 4 kts 301°
2026-05-08 05:33 32.90333 -97.03533 624 ft 0 kts 301°